Time,TemperatureF,DewpointF,PressureIn,WindDirection,WindDirectionDegrees,WindSpeedMPH,WindSpeedGustMPH,Humidity,HourlyPrecipIn,Conditions,Clouds,dailyrainin,SoftwareType,DateUTC
2013-06-21 00:00:00,68.1,56.7,30.24,WNW,288,1.0,4.0,67,0.00,,---,0.00,VWS V14.01,2013-06-21 04:00:00,
2013-06-21 00:01:00,68.0,55.8,30.25,WNW,286,0.0,0.0,65,0.00,,---,0.00,VWS V14.01,2013-06-21 04:01:00,
2013-06-21 00:02:00,68.0,55.8,30.25,WNW,286,0.0,0.0,65,0.00,,---,0.00,VWS V14.01,2013-06-21 04:02:00,
2013-06-21 00:07:00,68.0,56.2,30.25,SSE,152,0.0,8.0,66,0.00,,---,0.00,VWS V14.01,2013-06-21 04:07:00,
2013-06-21 00:10:00,67.9,55.7,30.25,SW,235,0.0,8.0,65,0.00,,---,0.00,VWS V14.01,2013-06-21 04:10:00,
2013-06-21 00:12:00,67.9,55.3,30.25,SSW,206,0.0,1.0,64,0.00,,---,0.00,VWS V14.01,2013-06-21 04:12:00,
2013-06-21 00:17:00,68.0,55.0,30.25,SE,135,2.0,6.0,63,0.00,,---,0.00,VWS V14.01,2013-06-21 04:17:00,
2013-06-21 00:20:00,68.1,54.6,30.25,SSW,198,6.0,8.0,62,0.00,,---,0.00,VWS V14.01,2013-06-21 04:20:00,
2013-06-21 00:22:00,68.4,53.1,30.25,SW,232,0.0,8.0,58,0.00,,---,0.00,VWS V14.01,2013-06-21 04:22:00,
2013-06-21 00:27:00,68.6,55.5,30.25,WNW,290,1.0,8.0,63,0.00,,---,0.00,VWS V14.01,2013-06-21 04:27:00,
2013-06-21 00:30:00,68.5,56.7,30.25,West,278,6.0,8.0,66,0.00,,---,0.00,VWS V14.01,2013-06-21 04:30:00,
2013-06-21 00:32:00,68.3,53.9,30.25,SE,131,2.0,6.0,60,0.00,,---,0.00,VWS V14.01,2013-06-21 04:32:00,
2013-06-21 00:37:00,68.5,53.2,30.25,WNW,294,1.0,6.0,58,0.00,,---,0.00,VWS V14.01,2013-06-21 04:37:00,
2013-06-21 00:40:00,68.6,55.5,30.25,NNW,328,0.0,6.0,63,0.00,,---,0.00,VWS V14.01,2013-06-21 04:40:00,
2013-06-21 00:42:00,68.4,56.6,30.25,NNW,343,0.0,1.0,66,0.00,,---,0.00,VWS V14.01,2013-06-21 04:42:00,
2013-06-21 00:47:00,67.9,57.4,30.26,WSW,239,0.0,1.0,69,0.00,,---,0.00,VWS V14.01,2013-06-21 04:47:00,
2013-06-21 00:50:00,67.7,56.8,30.26,NNW,348,0.0,1.0,68,0.00,,---,0.00,VWS V14.01,2013-06-21 04:50:00,
2013-06-21 00:52:00,67.6,56.7,30.26,NNW,348,0.0,0.0,68,0.00,,---,0.00,VWS V14.01,2013-06-21 04:52:00,
2013-06-21 00:57:00,67.3,58.0,30.26,North,349,0.0,1.0,72,0.00,,---,0.00,VWS V14.01,2013-06-21 04:57:00,
2013-06-21 01:00:00,67.3,58.7,30.26,North,349,0.0,1.0,74,0.00,,---,0.00,VWS V14.01,2013-06-21 05:00:00,
2013-06-21 01:02:00,67.1,57.8,30.26,North,349,0.0,0.0,72,0.00,,---,0.00,VWS V14.01,2013-06-21 05:02:00,
2013-06-21 01:07:00,66.9,58.0,30.26,North,349,0.0,0.0,73,0.00,,---,0.00,VWS V14.01,2013-06-21 05:07:00,
2013-06-21 01:10:00,66.8,57.9,30.26,NNW,348,0.0,0.0,73,0.00,,---,0.00,VWS V14.01,2013-06-21 05:10:00,
2013-06-21 01:12:00,66.8,58.6,30.26,North,349,0.0,0.0,75,0.00,,---,0.00,VWS V14.01,2013-06-21 05:12:00,
2013-06-21 01:17:00,66.6,58.1,30.26,NNW,348,0.0,1.0,74,0.00,,---,0.00,VWS V14.01,2013-06-21 05:17:00,
2013-06-21 01:20:00,66.5,58.3,30.26,NNW,341,1.0,2.0,75,0.00,,---,0.00,VWS V14.01,2013-06-21 05:20:00,
2013-06-21 01:22:00,66.4,57.9,30.26,NNW,342,0.0,1.0,74,0.00,,---,0.00,VWS V14.01,2013-06-21 05:22:00,
2013-06-21 01:27:00,66.2,57.7,30.26,North,356,0.0,1.0,74,0.00,,---,0.00,VWS V14.01,2013-06-21 05:27:00,
2013-06-21 01:30:00,66.2,57.7,30.26,North,357,0.0,1.0,74,0.00,,---,0.00,VWS V14.01,2013-06-21 05:30:00,
2013-06-21 01:32:00,66.2,58.0,30.26,North,356,0.0,0.0,75,0.00,,---,0.00,VWS V14.01,2013-06-21 05:32:00,
2013-06-21 01:37:00,66.0,58.2,30.26,NNE,15,0.0,1.0,76,0.00,,---,0.00,VWS V14.01,2013-06-21 05:37:00,
2013-06-21 01:40:00,66.0,58.2,30.26,NNE,15,0.0,1.0,76,0.00,,---,0.00,VWS V14.01,2013-06-21 05:40:00,
2013-06-21 01:42:00,65.9,57.8,30.26,NNE,13,0.0,1.0,75,0.00,,---,0.00,VWS V14.01,2013-06-21 05:42:00,
2013-06-21 01:47:00,65.7,56.8,30.26,NNE,13,0.0,1.0,73,0.00,,---,0.00,VWS V14.01,2013-06-21 05:47:00,
2013-06-21 01:50:00,65.6,57.8,30.26,NNE,13,0.0,1.0,76,0.00,,---,0.00,VWS V14.01,2013-06-21 05:50:00,
2013-06-21 01:52:00,65.6,57.8,30.26,NNE,13,0.0,0.0,76,0.00,,---,0.00,VWS V14.01,2013-06-21 05:52:00,
2013-06-21 01:57:00,65.5,57.7,30.26,NNE,13,0.0,0.0,76,0.00,,---,0.00,VWS V14.01,2013-06-21 05:57:00,
2013-06-21 02:00:00,65.4,57.7,30.26,NNE,13,0.0,0.0,76,0.00,,---,0.00,VWS V14.01,2013-06-21 06:00:00,
2013-06-21 02:02:00,65.4,58.0,30.26,NNE,13,0.0,0.0,77,0.00,,---,0.00,VWS V14.01,2013-06-21 06:02:00,
2013-06-21 02:07:00,65.2,58.2,30.26,NNE,13,0.0,0.0,78,0.00,,---,0.00,VWS V14.01,2013-06-21 06:07:00,
2013-06-21 02:10:00,65.2,57.8,30.26,NNE,13,0.0,0.0,77,0.00,,---,0.00,VWS V14.01,2013-06-21 06:10:00,
2013-06-21 02:12:00,65.0,58.0,30.26,NNE,13,0.0,0.0,78,0.00,,---,0.00,VWS V14.01,2013-06-21 06:12:00,
2013-06-21 02:17:00,65.0,59.0,30.26,NNE,13,0.0,0.0,81,0.00,,---,0.00,VWS V14.01,2013-06-21 06:17:00,
2013-06-21 02:20:00,65.0,59.4,30.26,NNE,13,0.0,0.0,82,0.00,,---,0.00,VWS V14.01,2013-06-21 06:20:00,
2013-06-21 02:22:00,64.9,58.6,30.25,NNE,13,0.0,0.0,80,0.00,,---,0.00,VWS V14.01,2013-06-21 06:22:00,
2013-06-21 02:27:00,64.7,57.3,30.25,NNE,13,0.0,0.0,77,0.00,,---,0.00,VWS V14.01,2013-06-21 06:27:00,
2013-06-21 02:30:00,64.7,57.3,30.26,NNE,15,0.0,0.0,77,0.00,,---,0.00,VWS V14.01,2013-06-21 06:30:00,
2013-06-21 02:32:00,64.7,57.3,30.25,NNE,15,0.0,1.0,77,0.00,,---,0.00,VWS V14.01,2013-06-21 06:32:00,
2013-06-21 02:37:00,64.6,57.6,30.25,ENE,68,0.0,1.0,78,0.00,,---,0.00,VWS V14.01,2013-06-21 06:37:00,
2013-06-21 02:40:00,64.4,56.7,30.25,ENE,68,0.0,1.0,76,0.00,,---,0.00,VWS V14.01,2013-06-21 06:40:00,
2013-06-21 02:42:00,64.2,56.5,30.25,ENE,68,0.0,1.0,76,0.00,,---,0.00,VWS V14.01,2013-06-21 06:42:00,
2013-06-21 02:47:00,63.9,56.9,30.25,ENE,68,0.0,1.0,78,0.00,,---,0.00,VWS V14.01,2013-06-21 06:47:00,
2013-06-21 02:50:00,63.8,56.8,30.25,ENE,68,0.0,1.0,78,0.00,,---,0.00,VWS V14.01,2013-06-21 06:50:00,
2013-06-21 02:52:00,63.5,56.2,30.25,ENE,68,0.0,0.0,77,0.00,,---,0.00,VWS V14.01,2013-06-21 06:52:00,
2013-06-21 02:57:00,63.1,55.8,30.25,ENE,68,0.0,0.0,77,0.00,,---,0.00,VWS V14.01,2013-06-21 06:57:00,
2013-06-21 03:00:00,63.0,56.4,30.24,ENE,68,0.0,0.0,79,0.00,,---,0.00,VWS V14.01,2013-06-21 07:00:00,
2013-06-21 03:02:00,62.8,56.5,30.24,ENE,68,0.0,0.0,80,0.00,,---,0.00,VWS V14.01,2013-06-21 07:02:00,
2013-06-21 03:07:00,62.3,56.4,30.24,ENE,68,0.0,0.0,81,0.00,,---,0.00,VWS V14.01,2013-06-21 07:07:00,
2013-06-21 03:10:00,62.1,55.9,30.24,ENE,68,0.0,0.0,80,0.00,,---,0.00,VWS V14.01,2013-06-21 07:10:00,
2013-06-21 03:12:00,61.8,55.9,30.24,ENE,68,0.0,0.0,81,0.00,,---,0.00,VWS V14.01,2013-06-21 07:12:00,
2013-06-21 03:17:00,61.4,55.5,30.24,ENE,68,0.0,1.0,81,0.00,,---,0.00,VWS V14.01,2013-06-21 07:17:00,
2013-06-21 03:20:00,61.3,55.4,30.24,ENE,68,0.0,1.0,81,0.00,,---,0.00,VWS V14.01,2013-06-21 07:20:00,
2013-06-21 03:22:00,61.1,55.6,30.24,ENE,68,0.0,0.0,82,0.00,,---,0.00,VWS V14.01,2013-06-21 07:22:00,
2013-06-21 03:27:00,60.8,55.9,30.24,ENE,68,0.0,0.0,84,0.00,,---,0.00,VWS V14.01,2013-06-21 07:27:00,
2013-06-21 03:30:00,60.7,55.8,30.24,ENE,68,0.0,0.0,84,0.00,,---,0.00,VWS V14.01,2013-06-21 07:30:00,
2013-06-21 03:32:00,60.4,55.5,30.24,ENE,65,0.0,0.0,84,0.00,,---,0.00,VWS V14.01,2013-06-21 07:32:00,
2013-06-21 03:37:00,60.2,56.0,30.24,NNE,25,0.0,0.0,86,0.00,,---,0.00,VWS V14.01,2013-06-21 07:37:00,
2013-06-21 03:40:00,60.1,55.9,30.24,NNE,24,0.0,0.0,86,0.00,,---,0.00,VWS V14.01,2013-06-21 07:40:00,
2013-06-21 03:42:00,60.0,56.1,30.24,NNE,25,0.0,0.0,87,0.00,,---,0.00,VWS V14.01,2013-06-21 07:42:00,
2013-06-21 03:47:00,59.6,55.4,30.25,NNE,25,0.0,0.0,86,0.00,,---,0.00,VWS V14.01,2013-06-21 07:47:00,
2013-06-21 03:50:00,59.5,55.3,30.25,NNE,25,0.0,0.0,86,0.00,,---,0.00,VWS V14.01,2013-06-21 07:50:00,
2013-06-21 03:52:00,59.2,55.3,30.25,NNE,25,0.0,0.0,87,0.00,,---,0.00,VWS V14.01,2013-06-21 07:52:00,
2013-06-21 03:57:00,59.0,55.1,30.25,NNE,26,0.0,0.0,87,0.00,,---,0.00,VWS V14.01,2013-06-21 07:57:00,
2013-06-21 04:00:00,58.9,55.4,30.25,NNE,26,0.0,0.0,88,0.00,,---,0.00,VWS V14.01,2013-06-21 08:00:00,
2013-06-21 04:02:00,58.8,55.3,30.25,ENE,62,0.0,0.0,88,0.00,,---,0.00,VWS V14.01,2013-06-21 08:02:00,
2013-06-21 04:07:00,58.6,55.1,30.25,ENE,65,0.0,1.0,88,0.00,,---,0.00,VWS V14.01,2013-06-21 08:07:00,
2013-06-21 04:10:00,58.6,55.1,30.24,ENE,65,0.0,1.0,88,0.00,,---,0.00,VWS V14.01,2013-06-21 08:10:00,
2013-06-21 04:12:00,58.7,55.2,30.25,ENE,65,0.0,1.0,88,0.00,,---,0.00,VWS V14.01,2013-06-21 08:12:00,
2013-06-21 04:17:00,58.7,55.2,30.24,ENE,65,0.0,1.0,88,0.00,,---,0.00,VWS V14.01,2013-06-21 08:17:00,
2013-06-21 04:20:00,58.8,55.6,30.24,ENE,65,0.0,1.0,89,0.00,,---,0.00,VWS V14.01,2013-06-21 08:20:00,
2013-06-21 04:22:00,58.8,55.6,30.24,ENE,70,0.0,1.0,89,0.00,,---,0.00,VWS V14.01,2013-06-21 08:22:00,
2013-06-21 04:27:00,58.8,55.6,30.24,ENE,71,0.0,1.0,89,0.00,,---,0.00,VWS V14.01,2013-06-21 08:27:00,
2013-06-21 04:30:00,58.8,55.6,30.24,ENE,70,0.0,1.0,89,0.00,,---,0.00,VWS V14.01,2013-06-21 08:30:00,
2013-06-21 04:32:00,58.8,55.6,30.24,ENE,70,0.0,0.0,89,0.00,,---,0.00,VWS V14.01,2013-06-21 08:32:00,
2013-06-21 04:37:00,58.6,55.4,30.24,ENE,71,0.0,0.0,89,0.00,,---,0.00,VWS V14.01,2013-06-21 08:37:00,
2013-06-21 04:40:00,58.6,55.4,30.24,ENE,70,0.0,0.0,89,0.00,,---,0.00,VWS V14.01,2013-06-21 08:40:00,
2013-06-21 04:42:00,58.5,55.3,30.24,ENE,71,1.0,1.0,89,0.00,,---,0.00,VWS V14.01,2013-06-21 08:42:00,
2013-06-21 04:47:00,58.2,54.7,30.24,ENE,70,0.0,1.0,88,0.00,,---,0.00,VWS V14.01,2013-06-21 08:47:00,
2013-06-21 04:50:00,58.2,54.3,30.24,ENE,76,1.0,1.0,87,0.00,,---,0.00,VWS V14.01,2013-06-21 08:50:00,
2013-06-21 04:52:00,58.3,54.8,30.24,East,79,0.0,1.0,88,0.00,,---,0.00,VWS V14.01,2013-06-21 08:52:00,
2013-06-21 04:57:00,58.1,54.6,30.24,East,79,0.0,1.0,88,0.00,,---,0.00,VWS V14.01,2013-06-21 08:57:00,
2013-06-21 05:00:00,58.0,54.5,30.24,East,79,0.0,1.0,88,0.00,,---,0.00,VWS V14.01,2013-06-21 09:00:00,
2013-06-21 05:02:00,57.9,54.7,30.24,East,79,0.0,0.0,89,0.00,,---,0.00,VWS V14.01,2013-06-21 09:02:00,
2013-06-21 05:07:00,57.6,54.4,30.24,East,79,0.0,0.0,89,0.00,,---,0.00,VWS V14.01,2013-06-21 09:07:00,
2013-06-21 05:10:00,57.5,54.6,30.24,East,79,0.0,0.0,90,0.00,,---,0.00,VWS V14.01,2013-06-21 09:10:00,
2013-06-21 05:12:00,57.4,54.5,30.24,East,79,0.0,0.0,90,0.00,,---,0.00,VWS V14.01,2013-06-21 09:12:00,
2013-06-21 05:17:00,57.1,54.5,30.24,East,79,0.0,0.0,91,0.00,,---,0.00,VWS V14.01,2013-06-21 09:17:00,
2013-06-21 05:20:00,57.0,54.4,30.24,East,79,0.0,0.0,91,0.00,,---,0.00,VWS V14.01,2013-06-21 09:20:00,
2013-06-21 05:22:00,57.0,54.4,30.24,East,79,0.0,0.0,91,0.00,,---,0.00,VWS V14.01,2013-06-21 09:22:00,
2013-06-21 05:27:00,56.8,53.9,30.24,East,79,0.0,0.0,90,0.00,,---,0.00,VWS V14.01,2013-06-21 09:27:00,
2013-06-21 05:30:00,56.8,53.6,30.24,East,79,0.0,0.0,89,0.00,,---,0.00,VWS V14.01,2013-06-21 09:30:00,
2013-06-21 05:32:00,56.7,53.5,30.24,East,79,0.0,0.0,89,0.00,,---,0.00,VWS V14.01,2013-06-21 09:32:00,
2013-06-21 05:37:00,56.3,53.4,30.24,East,79,0.0,0.0,90,0.00,,---,0.00,VWS V14.01,2013-06-21 09:37:00,
2013-06-21 05:40:00,56.3,53.7,30.24,East,79,0.0,0.0,91,0.00,,---,0.00,VWS V14.01,2013-06-21 09:40:00,
2013-06-21 05:42:00,56.3,53.7,30.24,East,79,0.0,0.0,91,0.00,,---,0.00,VWS V14.01,2013-06-21 09:42:00,
2013-06-21 05:47:00,56.1,53.5,30.24,East,79,0.0,0.0,91,0.00,,---,0.00,VWS V14.01,2013-06-21 09:47:00,
2013-06-21 05:50:00,56.0,53.4,30.24,East,79,0.0,0.0,91,0.00,,---,0.00,VWS V14.01,2013-06-21 09:50:00,
2013-06-21 05:52:00,55.9,53.6,30.24,ENE,78,0.0,1.0,92,0.00,,---,0.00,VWS V14.01,2013-06-21 09:52:00,
2013-06-21 05:57:00,56.1,54.1,30.25,North,5,0.0,1.0,93,0.00,,---,0.00,VWS V14.01,2013-06-21 09:57:00,
2013-06-21 06:00:00,56.1,54.1,30.25,North,6,0.0,1.0,93,0.00,,---,0.00,VWS V14.01,2013-06-21 10:00:00,
2013-06-21 06:02:00,56.1,54.1,30.25,North,6,0.0,1.0,93,0.00,,---,0.00,VWS V14.01,2013-06-21 10:02:00,
2013-06-21 06:07:00,56.2,53.9,30.25,North,6,0.0,1.0,92,0.00,,---,0.00,VWS V14.01,2013-06-21 10:07:00,
2013-06-21 06:10:00,56.2,53.9,30.24,North,6,0.0,1.0,92,0.00,,---,0.00,VWS V14.01,2013-06-21 10:10:00,
2013-06-21 06:12:00,56.2,53.9,30.25,NW,312,0.0,0.0,92,0.00,,---,0.00,VWS V14.01,2013-06-21 10:12:00,
2013-06-21 06:17:00,56.1,53.8,30.25,NW,311,0.0,0.0,92,0.00,,---,0.00,VWS V14.01,2013-06-21 10:17:00,
2013-06-21 06:20:00,56.1,53.8,30.25,NW,311,0.0,0.0,92,0.00,,---,0.00,VWS V14.01,2013-06-21 10:20:00,
2013-06-21 06:22:00,56.2,54.2,30.25,NW,312,0.0,0.0,93,0.00,,---,0.00,VWS V14.01,2013-06-21 10:22:00,
2013-06-21 06:27:00,56.3,54.3,30.25,NW,316,0.0,0.0,93,0.00,,---,0.00,VWS V14.01,2013-06-21 10:27:00,
2013-06-21 06:30:00,56.4,54.4,30.25,NW,316,0.0,0.0,93,0.00,,---,0.00,VWS V14.01,2013-06-21 10:30:00,
2013-06-21 06:32:00,56.5,54.5,30.25,NW,316,0.0,0.0,93,0.00,,---,0.00,VWS V14.01,2013-06-21 10:32:00,
2013-06-21 06:37:00,56.5,54.5,30.25,NW,316,0.0,0.0,93,0.00,,---,0.00,VWS V14.01,2013-06-21 10:37:00,
2013-06-21 06:40:00,56.5,54.5,30.25,NW,316,0.0,0.0,93,0.00,,---,0.00,VWS V14.01,2013-06-21 10:40:00,
2013-06-21 06:42:00,56.6,54.6,30.25,NW,316,0.0,0.0,93,0.00,,---,0.00,VWS V14.01,2013-06-21 10:42:00,
2013-06-21 06:47:00,56.9,54.9,30.25,NW,316,0.0,0.0,93,0.00,,---,0.00,VWS V14.01,2013-06-21 10:47:00,
2013-06-21 06:50:00,57.0,55.0,30.26,NW,316,0.0,0.0,93,0.00,,---,0.00,VWS V14.01,2013-06-21 10:50:00,
2013-06-21 06:52:00,57.2,55.5,30.26,NW,316,0.0,0.0,94,0.00,,---,0.00,VWS V14.01,2013-06-21 10:52:00,
2013-06-21 06:57:00,57.7,56.0,30.26,NW,316,0.0,0.0,94,0.00,,---,0.00,VWS V14.01,2013-06-21 10:57:00,
2013-06-21 07:00:00,57.9,56.2,30.26,NW,316,0.0,0.0,94,0.00,,---,0.00,VWS V14.01,2013-06-21 11:00:00,
2013-06-21 07:02:00,58.2,56.5,30.26,NW,316,0.0,0.0,94,0.00,,---,0.00,VWS V14.01,2013-06-21 11:02:00,
2013-06-21 07:07:00,58.6,56.3,30.26,NW,321,0.0,0.0,92,0.00,,---,0.00,VWS V14.01,2013-06-21 11:07:00,
2013-06-21 07:10:00,58.7,56.4,30.26,NNE,21,0.0,0.0,92,0.00,,---,0.00,VWS V14.01,2013-06-21 11:10:00,
2013-06-21 07:12:00,59.0,56.7,30.26,NNE,21,0.0,1.0,92,0.00,,---,0.00,VWS V14.01,2013-06-21 11:12:00,
2013-06-21 07:17:00,59.5,56.9,30.27,NNE,22,0.0,1.0,91,0.00,,---,0.00,VWS V14.01,2013-06-21 11:17:00,
2013-06-21 07:20:00,59.8,57.2,30.27,NNE,21,0.0,1.0,91,0.00,,---,0.00,VWS V14.01,2013-06-21 11:20:00,
2013-06-21 07:22:00,60.1,57.5,30.27,NNE,20,0.0,1.0,91,0.00,,---,0.00,VWS V14.01,2013-06-21 11:22:00,
2013-06-21 07:27:00,60.5,57.6,30.27,NNE,22,0.0,1.0,90,0.00,,---,0.00,VWS V14.01,2013-06-21 11:27:00,
2013-06-21 07:30:00,60.7,57.8,30.27,NNE,21,0.0,1.0,90,0.00,,---,0.00,VWS V14.01,2013-06-21 11:30:00,
2013-06-21 07:32:00,61.1,57.5,30.27,NNE,21,0.0,0.0,88,0.00,,---,0.00,VWS V14.01,2013-06-21 11:32:00,
2013-06-21 07:37:00,62.0,58.7,30.27,NNE,22,0.0,0.0,89,0.00,,---,0.00,VWS V14.01,2013-06-21 11:37:00,
2013-06-21 07:40:00,62.3,58.7,30.27,NNE,20,0.0,0.0,88,0.00,,---,0.00,VWS V14.01,2013-06-21 11:40:00,
2013-06-21 07:42:00,63.0,59.1,30.27,NNE,20,0.0,0.0,87,0.00,,---,0.00,VWS V14.01,2013-06-21 11:42:00,
2013-06-21 07:47:00,64.7,59.4,30.27,NNE,20,0.0,0.0,83,0.00,,---,0.00,VWS V14.01,2013-06-21 11:47:00,
2013-06-21 07:50:00,65.2,58.5,30.27,NNE,20,0.0,1.0,79,0.00,,---,0.00,VWS V14.01,2013-06-21 11:50:00,
2013-06-21 07:52:00,65.9,59.6,30.27,NNE,20,0.0,1.0,80,0.00,,---,0.00,VWS V14.01,2013-06-21 11:52:00,
2013-06-21 07:57:00,67.3,59.8,30.27,SSE,154,1.0,1.0,77,0.00,,---,0.00,VWS V14.01,2013-06-21 11:57:00,
2013-06-21 08:00:00,67.5,59.7,30.27,SSE,165,0.0,1.0,76,0.00,,---,0.00,VWS V14.01,2013-06-21 12:00:00,
2013-06-21 08:02:00,67.9,59.7,30.27,South,170,0.0,1.0,75,0.00,,---,0.00,VWS V14.01,2013-06-21 12:02:00,
2013-06-21 08:07:00,68.5,59.1,30.27,SSE,165,0.0,1.0,72,0.00,,---,0.00,VWS V14.01,2013-06-21 12:07:00,
2013-06-21 08:10:00,68.8,59.8,30.27,South,173,0.0,1.0,73,0.00,,---,0.00,VWS V14.01,2013-06-21 12:10:00,
2013-06-21 08:12:00,69.1,59.7,30.27,SE,146,0.0,1.0,72,0.00,,---,0.00,VWS V14.01,2013-06-21 12:12:00,
2013-06-21 08:17:00,69.9,60.1,30.27,ESE,118,0.0,1.0,71,0.00,,---,0.00,VWS V14.01,2013-06-21 12:17:00,
2013-06-21 08:20:00,70.0,59.4,30.27,SSE,155,1.0,1.0,69,0.00,,---,0.00,VWS V14.01,2013-06-21 12:20:00,
2013-06-21 08:22:00,70.0,59.0,30.27,SW,226,0.0,1.0,68,0.00,,---,0.00,VWS V14.01,2013-06-21 12:22:00,
2013-06-21 08:27:00,69.8,57.9,30.27,West,264,1.0,2.0,66,0.00,,---,0.00,VWS V14.01,2013-06-21 12:27:00,
2013-06-21 08:30:00,69.7,57.8,30.27,SW,236,0.0,2.0,66,0.00,,---,0.00,VWS V14.01,2013-06-21 12:30:00,
2013-06-21 08:32:00,69.6,57.3,30.27,SW,235,0.0,1.0,65,0.00,,---,0.00,VWS V14.01,2013-06-21 12:32:00,
2013-06-21 08:37:00,70.3,57.1,30.27,South,173,1.0,2.0,63,0.00,,---,0.00,VWS V14.01,2013-06-21 12:37:00,
2013-06-21 08:40:00,70.6,57.0,30.27,SSE,162,0.0,2.0,62,0.00,,---,0.00,VWS V14.01,2013-06-21 12:40:00,
2013-06-21 08:42:00,71.2,57.1,30.27,SSE,149,1.0,1.0,61,0.00,,---,0.00,VWS V14.01,2013-06-21 12:42:00,
2013-06-21 08:47:00,71.7,57.1,30.26,SE,131,1.0,1.0,60,0.00,,---,0.00,VWS V14.01,2013-06-21 12:47:00,
2013-06-21 08:50:00,71.8,56.7,30.26,SE,143,0.0,2.0,59,0.00,,---,0.00,VWS V14.01,2013-06-21 12:50:00,
2013-06-21 08:52:00,72.2,57.6,30.26,SE,135,0.0,1.0,60,0.00,,---,0.00,VWS V14.01,2013-06-21 12:52:00,
2013-06-21 08:57:00,72.9,57.8,30.26,SSE,149,0.0,2.0,59,0.00,,---,0.00,VWS V14.01,2013-06-21 12:57:00,
2013-06-21 09:00:00,72.9,55.3,30.26,SE,131,0.0,2.0,54,0.00,,---,0.00,VWS V14.01,2013-06-21 13:00:00,
2013-06-21 09:02:00,72.9,56.8,30.26,SSW,205,0.0,1.0,57,0.00,,---,0.00,VWS V14.01,2013-06-21 13:02:00,
2013-06-21 09:07:00,73.1,56.0,30.26,SSW,193,1.0,2.0,55,0.00,,---,0.00,VWS V14.01,2013-06-21 13:07:00,
2013-06-21 09:10:00,73.3,56.2,30.26,SSE,159,0.0,2.0,55,0.00,,---,0.00,VWS V14.01,2013-06-21 13:10:00,
2013-06-21 09:12:00,73.4,56.3,30.26,SSE,152,2.0,3.0,55,0.00,,---,0.00,VWS V14.01,2013-06-21 13:12:00,
2013-06-21 09:17:00,73.2,58.0,30.26,SE,139,2.0,3.0,59,0.00,,---,0.00,VWS V14.01,2013-06-21 13:17:00,
2013-06-21 09:20:00,73.1,57.0,30.26,SSE,153,2.0,4.0,57,0.00,,---,0.00,VWS V14.01,2013-06-21 13:20:00,
2013-06-21 09:22:00,73.4,56.8,30.26,SSE,150,0.0,2.0,56,0.00,,---,0.00,VWS V14.01,2013-06-21 13:22:00,
2013-06-21 09:27:00,73.5,56.4,30.26,East,87,3.0,4.0,55,0.00,,---,0.00,VWS V14.01,2013-06-21 13:27:00,
2013-06-21 09:30:00,73.3,55.7,30.26,East,87,2.0,4.0,54,0.00,,---,0.00,VWS V14.01,2013-06-21 13:30:00,
2013-06-21 09:33:00,73.2,57.1,30.26,SE,136,2.0,4.0,57,0.00,,---,0.00,VWS V14.01,2013-06-21 13:33:00,
2013-06-21 09:38:00,73.3,54.6,30.26,ESE,106,3.0,4.0,52,0.00,,---,0.00,VWS V14.01,2013-06-21 13:38:00,
2013-06-21 09:40:00,73.3,53.6,30.26,SE,137,1.0,4.0,50,0.00,,---,0.00,VWS V14.01,2013-06-21 13:40:00,
2013-06-21 09:43:00,73.5,54.8,30.26,East,87,1.0,4.0,52,0.00,,---,0.00,VWS V14.01,2013-06-21 13:43:00,
2013-06-21 09:48:00,73.7,53.9,30.26,SE,124,2.0,6.0,50,0.00,,---,0.00,VWS V14.01,2013-06-21 13:48:00,
2013-06-21 09:50:00,73.7,54.5,30.26,SE,146,0.0,6.0,51,0.00,,---,0.00,VWS V14.01,2013-06-21 13:50:00,
2013-06-21 09:53:00,74.0,53.7,30.26,ENE,64,4.0,6.0,49,0.00,,---,0.00,VWS V14.01,2013-06-21 13:53:00,
2013-06-21 09:58:00,73.9,51.8,30.26,East,86,4.0,8.0,46,0.00,,---,0.00,VWS V14.01,2013-06-21 13:58:00,
2013-06-21 10:00:00,73.8,52.9,30.26,East,91,1.0,8.0,48,0.00,,---,0.00,VWS V14.01,2013-06-21 14:00:00,
2013-06-21 10:03:00,73.7,51.1,30.26,East,85,3.0,6.0,45,0.00,,---,0.00,VWS V14.01,2013-06-21 14:03:00,
2013-06-21 10:08:00,73.7,53.9,30.26,East,98,5.0,6.0,50,0.00,,---,0.00,VWS V14.01,2013-06-21 14:08:00,
2013-06-21 10:10:00,73.7,52.2,30.26,ESE,120,3.0,6.0,47,0.00,,---,0.00,VWS V14.01,2013-06-21 14:10:00,
2013-06-21 10:13:00,73.7,53.9,30.26,SE,128,0.0,5.0,50,0.00,,---,0.00,VWS V14.01,2013-06-21 14:13:00,
2013-06-21 10:18:00,74.1,53.2,30.26,SSE,159,3.0,5.0,48,0.00,,---,0.00,VWS V14.01,2013-06-21 14:18:00,
2013-06-21 10:20:00,74.1,53.2,30.26,SE,126,3.0,5.0,48,0.00,,---,0.00,VWS V14.01,2013-06-21 14:20:00,
2013-06-21 10:23:00,74.3,53.9,30.26,ENE,73,1.0,4.0,49,0.00,,---,0.00,VWS V14.01,2013-06-21 14:23:00,
2013-06-21 10:28:00,74.6,53.6,30.26,ESE,113,1.0,5.0,48,0.00,,---,0.00,VWS V14.01,2013-06-21 14:28:00,
2013-06-21 10:30:00,74.6,53.6,30.26,ESE,106,2.0,5.0,48,0.00,,---,0.00,VWS V14.01,2013-06-21 14:30:00,
2013-06-21 10:33:00,74.7,53.2,30.26,SE,131,1.0,2.0,47,0.00,,---,0.00,VWS V14.01,2013-06-21 14:33:00,
2013-06-21 10:38:00,75.0,53.4,30.26,SSW,198,0.0,5.0,47,0.00,,---,0.00,VWS V14.01,2013-06-21 14:38:00,
2013-06-21 10:40:00,75.2,54.8,30.26,East,79,0.0,5.0,49,0.00,,---,0.00,VWS V14.01,2013-06-21 14:40:00,
2013-06-21 10:43:00,75.7,53.5,30.26,SSE,167,2.0,6.0,46,0.00,,---,0.00,VWS V14.01,2013-06-21 14:43:00,
2013-06-21 10:48:00,75.7,53.5,30.26,SSW,207,1.0,6.0,46,0.00,,---,0.00,VWS V14.01,2013-06-21 14:48:00,
2013-06-21 10:50:00,75.7,52.9,30.26,SSW,207,0.0,6.0,45,0.00,,---,0.00,VWS V14.01,2013-06-21 14:50:00,
2013-06-21 10:53:00,76.1,55.0,30.26,SSE,166,3.0,3.0,48,0.00,,---,0.00,VWS V14.01,2013-06-21 14:53:00,
2013-06-21 10:58:00,76.2,53.9,30.26,ESE,108,1.0,5.0,46,0.00,,---,0.00,VWS V14.01,2013-06-21 14:58:00,
2013-06-21 11:00:00,76.1,53.2,30.26,ESE,110,1.0,5.0,45,0.00,,---,0.00,VWS V14.01,2013-06-21 15:00:00,
2013-06-21 11:03:00,75.9,54.2,30.26,NE,34,0.0,3.0,47,0.00,,---,0.00,VWS V14.01,2013-06-21 15:03:00,
2013-06-21 11:08:00,76.2,55.7,30.27,SW,215,5.0,5.0,49,0.00,,---,0.00,VWS V14.01,2013-06-21 15:08:00,
2013-06-21 11:10:00,76.3,57.4,30.27,South,174,2.0,6.0,52,0.00,,---,0.00,VWS V14.01,2013-06-21 15:10:00,
2013-06-21 11:13:00,76.6,54.3,30.27,SSE,156,0.0,5.0,46,0.00,,---,0.00,VWS V14.01,2013-06-21 15:13:00,
2013-06-21 11:18:00,76.6,53.7,30.26,East,101,1.0,6.0,45,0.00,,---,0.00,VWS V14.01,2013-06-21 15:18:00,
2013-06-21 11:20:00,76.6,56.0,30.26,SSW,195,0.0,6.0,49,0.00,,---,0.00,VWS V14.01,2013-06-21 15:20:00,
2013-06-21 11:23:00,76.7,55.0,30.26,ENE,70,2.0,5.0,47,0.00,,---,0.00,VWS V14.01,2013-06-21 15:23:00,
2013-06-21 11:28:00,76.7,56.7,30.26,ENE,73,6.0,8.0,50,0.00,,---,0.00,VWS V14.01,2013-06-21 15:28:00,
2013-06-21 11:30:00,76.7,55.5,30.26,East,91,6.0,8.0,48,0.00,,---,0.00,VWS V14.01,2013-06-21 15:30:00,
2013-06-21 11:33:00,76.7,56.7,30.26,East,91,2.0,6.0,50,0.00,,---,0.00,VWS V14.01,2013-06-21 15:33:00,
2013-06-21 11:39:00,76.8,55.7,30.26,ENE,63,0.0,6.0,48,0.00,,---,0.00,VWS V14.01,2013-06-21 15:39:00,
2013-06-21 11:40:00,76.8,55.7,30.26,ENE,62,0.0,6.0,48,0.00,,---,0.00,VWS V14.01,2013-06-21 15:40:00,
2013-06-21 11:44:00,76.9,56.9,30.26,East,92,1.0,3.0,50,0.00,,---,0.00,VWS V14.01,2013-06-21 15:44:00,
2013-06-21 11:49:00,77.2,57.1,30.26,SSW,208,1.0,3.0,50,0.00,,---,0.00,VWS V14.01,2013-06-21 15:49:00,
2013-06-21 11:50:00,77.2,57.1,30.26,South,190,3.0,8.0,50,0.00,,---,0.00,VWS V14.01,2013-06-21 15:50:00,
2013-06-21 11:54:00,77.3,57.2,30.26,NE,37,4.0,6.0,50,0.00,,---,0.00,VWS V14.01,2013-06-21 15:54:00,
2013-06-21 11:59:00,77.2,56.6,30.26,NE,53,1.0,2.0,49,0.00,,---,0.00,VWS V14.01,2013-06-21 15:59:00,
2013-06-21 12:00:00,77.2,57.7,30.26,ENE,72,1.0,6.0,51,0.00,,---,0.00,VWS V14.01,2013-06-21 16:00:00,
2013-06-21 12:04:00,77.5,58.0,30.26,SE,131,6.0,6.0,51,0.00,,---,0.00,VWS V14.01,2013-06-21 16:04:00,
2013-06-21 12:10:00,77.4,57.3,30.26,South,181,0.0,3.0,50,0.00,,---,0.00,VWS V14.01,2013-06-21 16:10:00,
2013-06-21 12:15:00,77.5,58.5,30.26,ENE,58,2.0,3.0,52,0.00,,---,0.00,VWS V14.01,2013-06-21 16:15:00,
2013-06-21 12:20:00,77.6,59.1,30.26,SSE,148,3.0,4.0,53,0.00,,---,0.00,VWS V14.01,2013-06-21 16:20:00,
2013-06-21 12:25:00,77.8,59.3,30.27,NNE,15,0.0,4.0,53,0.00,,---,0.00,VWS V14.01,2013-06-21 16:25:00,
2013-06-21 12:30:00,78.2,58.6,30.26,SSW,201,1.0,3.0,51,0.00,,---,0.00,VWS V14.01,2013-06-21 16:30:00,
2013-06-21 12:35:00,78.3,58.2,30.26,SE,135,5.0,5.0,50,0.00,,---,0.00,VWS V14.01,2013-06-21 16:35:00,
2013-06-21 12:40:00,78.2,57.5,30.26,SSE,163,1.0,3.0,49,0.00,,---,0.00,VWS V14.01,2013-06-21 16:40:00,
2013-06-21 12:45:00,78.3,57.6,30.26,WSW,250,1.0,5.0,49,0.00,,---,0.00,VWS V14.01,2013-06-21 16:45:00,
2013-06-21 12:50:00,78.4,58.8,30.26,SW,229,1.0,1.0,51,0.00,,---,0.00,VWS V14.01,2013-06-21 16:50:00,
2013-06-21 12:55:00,78.7,62.2,30.26,SSW,197,2.0,7.0,57,0.00,,---,0.00,VWS V14.01,2013-06-21 16:55:00,
2013-06-21 13:00:00,79.3,60.7,30.26,NNE,32,4.0,5.0,53,0.00,,---,0.00,VWS V14.01,2013-06-21 17:00:00,
2013-06-21 13:05:00,78.9,59.2,30.26,NNE,16,6.0,7.0,51,0.00,,---,0.00,VWS V14.01,2013-06-21 17:05:00,
2013-06-21 13:10:00,78.5,58.9,30.26,SE,131,2.0,4.0,51,0.00,,---,0.00,VWS V14.01,2013-06-21 17:10:00,
2013-06-21 13:15:00,78.5,59.4,30.26,ESE,109,5.0,8.0,52,0.00,,---,0.00,VWS V14.01,2013-06-21 17:15:00,
2013-06-21 13:20:00,78.7,59.6,30.26,East,84,3.0,8.0,52,0.00,,---,0.00,VWS V14.01,2013-06-21 17:20:00,
2013-06-21 13:26:00,78.7,60.2,30.26,ENE,60,3.0,8.0,53,0.00,,---,0.00,VWS V14.01,2013-06-21 17:26:00,
2013-06-21 13:30:00,78.6,59.5,30.26,ENE,67,4.0,8.0,52,0.00,,---,0.00,VWS V14.01,2013-06-21 17:30:00,
2013-06-21 13:31:00,78.7,60.7,30.26,ESE,114,4.0,7.0,54,0.00,,---,0.00,VWS V14.01,2013-06-21 17:31:00,
2013-06-21 13:36:00,78.7,60.7,30.26,ESE,110,5.0,7.0,54,0.00,,---,0.00,VWS V14.01,2013-06-21 17:36:00,
2013-06-21 13:40:00,78.7,59.6,30.26,East,98,2.0,7.0,52,0.00,,---,0.00,VWS V14.01,2013-06-21 17:40:00,
2013-06-21 13:41:00,78.7,62.2,30.25,South,188,0.0,3.0,57,0.00,,---,0.00,VWS V14.01,2013-06-21 17:41:00,
2013-06-21 13:46:00,79.2,62.7,30.25,ENE,59,5.0,6.0,57,0.00,,---,0.00,VWS V14.01,2013-06-21 17:46:00,
2013-06-21 13:47:00,79.2,60.1,30.25,NE,54,2.0,6.0,52,0.00,,---,0.00,VWS V14.01,2013-06-21 17:47:00,
2013-06-21 13:48:00,79.1,62.1,30.25,ESE,117,5.0,6.0,56,0.00,,---,0.00,VWS V14.01,2013-06-21 17:48:00,
2013-06-21 13:50:00,79.1,61.0,30.25,ESE,116,3.0,6.0,54,0.00,,---,0.00,VWS V14.01,2013-06-21 17:50:00,
2013-06-21 13:53:00,79.1,60.5,30.25,WSW,240,0.0,6.0,53,0.00,,---,0.00,VWS V14.01,2013-06-21 17:53:00,
2013-06-21 13:58:00,79.4,61.8,30.24,East,93,4.0,9.0,55,0.00,,---,0.00,VWS V14.01,2013-06-21 17:58:00,
2013-06-21 14:00:00,79.4,60.3,30.24,ENE,62,3.0,9.0,52,0.00,,---,0.00,VWS V14.01,2013-06-21 18:00:00,
2013-06-21 14:03:00,79.4,61.8,30.24,WSW,243,6.0,7.0,55,0.00,,---,0.00,VWS V14.01,2013-06-21 18:03:00,
2013-06-21 14:08:00,79.8,63.2,30.24,SE,136,3.0,7.0,57,0.00,,---,0.00,VWS V14.01,2013-06-21 18:08:00,
2013-06-21 14:10:00,79.8,61.7,30.24,NE,42,5.0,7.0,54,0.00,,---,0.00,VWS V14.01,2013-06-21 18:10:00,
2013-06-21 14:13:00,80.0,61.9,30.24,SSE,149,2.0,6.0,54,0.00,,---,0.00,VWS V14.01,2013-06-21 18:13:00,
2013-06-21 14:18:00,80.0,61.3,30.24,NNE,27,3.0,7.0,53,0.00,,---,0.00,VWS V14.01,2013-06-21 18:18:00,
2013-06-21 14:20:00,80.0,62.4,30.24,East,93,5.0,7.0,55,0.00,,---,0.00,VWS V14.01,2013-06-21 18:20:00,
2013-06-21 14:23:00,79.8,60.6,30.24,NE,56,4.0,8.0,52,0.00,,---,0.00,VWS V14.01,2013-06-21 18:23:00,
2013-06-21 14:24:00,79.7,61.6,30.24,East,83,5.0,8.0,54,0.00,,---,0.00,VWS V14.01,2013-06-21 18:24:00,
2013-06-21 14:29:00,79.7,61.1,30.24,East,101,2.0,8.0,53,0.00,,---,0.00,VWS V14.01,2013-06-21 18:29:00,
2013-06-21 14:30:00,79.7,61.1,30.23,SE,145,2.0,8.0,53,0.00,,---,0.00,VWS V14.01,2013-06-21 18:30:00,
2013-06-21 14:34:00,80.0,61.9,30.24,ESE,115,4.0,6.0,54,0.00,,---,0.00,VWS V14.01,2013-06-21 18:34:00,
2013-06-21 14:39:00,80.2,61.5,30.24,South,179,1.0,7.0,53,0.00,,---,0.00,VWS V14.01,2013-06-21 18:39:00,
2013-06-21 14:40:00,80.2,61.5,30.24,SSE,158,2.0,7.0,53,0.00,,---,0.00,VWS V14.01,2013-06-21 18:40:00,
2013-06-21 14:44:00,80.7,63.0,30.24,SSE,155,2.0,4.0,55,0.00,,---,0.00,VWS V14.01,2013-06-21 18:44:00,
2013-06-21 14:45:00,80.8,62.1,30.24,East,84,0.0,4.0,53,0.00,,---,0.00,VWS V14.01,2013-06-21 18:45:00,
2013-06-21 14:50:00,80.9,63.8,30.24,SW,219,5.0,5.0,56,0.00,,---,0.00,VWS V14.01,2013-06-21 18:50:00,
2013-06-21 14:55:00,80.7,60.9,30.24,West,260,0.0,7.0,51,0.00,,---,0.00,VWS V14.01,2013-06-21 18:55:00,
2013-06-21 15:00:00,81.2,62.5,30.24,East,81,3.0,6.0,53,0.00,,---,0.00,VWS V14.01,2013-06-21 19:00:00,
2013-06-21 15:05:00,80.9,60.5,30.24,NNE,23,2.0,7.0,50,0.00,,---,0.00,VWS V14.01,2013-06-21 19:05:00,
2013-06-21 15:10:00,80.8,62.1,30.24,NE,41,4.0,7.0,53,0.00,,---,0.00,VWS V14.01,2013-06-21 19:10:00,
2013-06-21 15:11:00,80.8,63.7,30.24,ESE,117,5.0,5.0,56,0.00,,---,0.00,VWS V14.01,2013-06-21 19:11:00,
2013-06-21 15:16:00,81.2,65.5,30.24,WNW,283,2.0,8.0,59,0.00,,---,0.00,VWS V14.01,2013-06-21 19:16:00,
2013-06-21 15:20:00,81.4,62.1,30.24,NNW,335,1.0,1.0,52,0.00,,---,0.00,VWS V14.01,2013-06-21 19:20:00,
2013-06-21 15:25:00,81.8,62.5,30.24,SSE,153,4.0,6.0,52,0.00,,---,0.00,VWS V14.01,2013-06-21 19:25:00,
2013-06-21 15:30:00,82.0,63.2,30.24,South,186,2.0,4.0,53,0.00,,---,0.00,VWS V14.01,2013-06-21 19:30:00,
2013-06-21 15:35:00,82.1,61.6,30.24,SSE,155,3.0,5.0,50,0.00,,---,0.00,VWS V14.01,2013-06-21 19:35:00,
2013-06-21 15:40:00,81.8,63.0,30.23,East,83,5.0,6.0,53,0.00,,---,0.00,VWS V14.01,2013-06-21 19:40:00,
2013-06-21 15:42:00,81.6,62.3,30.23,East,85,3.0,6.0,52,0.00,,---,0.00,VWS V14.01,2013-06-21 19:42:00,
2013-06-21 15:47:00,81.4,62.1,30.23,East,82,0.0,7.0,52,0.00,,---,0.00,VWS V14.01,2013-06-21 19:47:00,
2013-06-21 15:50:00,81.4,63.2,30.23,NE,53,3.0,7.0,54,0.00,,---,0.00,VWS V14.01,2013-06-21 19:50:00,
2013-06-21 15:52:00,81.3,62.5,30.23,East,89,2.0,6.0,53,0.00,,---,0.00,VWS V14.01,2013-06-21 19:52:00,
2013-06-21 15:57:00,81.1,61.3,30.23,ENE,58,6.0,8.0,51,0.00,,---,0.00,VWS V14.01,2013-06-21 19:57:00,
2013-06-21 16:00:00,81.0,61.7,30.23,ESE,123,6.0,8.0,52,0.00,,---,0.00,VWS V14.01,2013-06-21 20:00:00,
2013-06-21 16:02:00,80.9,62.7,30.23,East,98,3.0,5.0,54,0.00,,---,0.00,VWS V14.01,2013-06-21 20:02:00,
2013-06-21 16:04:00,81.0,62.8,30.23,ENE,68,3.0,5.0,54,0.00,,---,0.00,VWS V14.01,2013-06-21 20:04:00,
2013-06-21 16:08:00,81.1,62.9,30.23,ENE,68,1.0,7.0,54,0.00,,---,0.00,VWS V14.01,2013-06-21 20:08:00,
2013-06-21 16:10:00,81.1,63.4,30.23,ENE,58,6.0,7.0,55,0.00,,---,0.00,VWS V14.01,2013-06-21 20:10:00,
2013-06-21 16:11:00,81.0,61.2,30.23,NE,42,4.0,9.0,51,0.00,,---,0.00,VWS V14.01,2013-06-21 20:11:00,
2013-06-21 16:13:00,80.9,62.7,30.23,NNE,33,1.0,9.0,54,0.00,,---,0.00,VWS V14.01,2013-06-21 20:13:00,
2013-06-21 16:18:00,81.1,62.9,30.23,East,94,6.0,9.0,54,0.00,,---,0.00,VWS V14.01,2013-06-21 20:18:00,
2013-06-21 16:20:00,81.1,62.4,30.23,East,89,2.0,9.0,53,0.00,,---,0.00,VWS V14.01,2013-06-21 20:20:00,
2013-06-21 16:23:00,81.1,61.3,30.23,ESE,110,2.0,6.0,51,0.00,,---,0.00,VWS V14.01,2013-06-21 20:23:00,
2013-06-21 16:28:00,81.1,62.9,30.22,NNE,33,3.0,7.0,54,0.00,,---,0.00,VWS V14.01,2013-06-21 20:28:00,
2013-06-21 16:30:00,81.1,61.8,30.23,East,79,3.0,7.0,52,0.00,,---,0.00,VWS V14.01,2013-06-21 20:30:00,
2013-06-21 16:33:00,81.0,61.2,30.22,SE,129,4.0,7.0,51,0.00,,---,0.00,VWS V14.01,2013-06-21 20:33:00,
2013-06-21 16:38:00,81.0,62.8,30.22,ESE,102,2.0,7.0,54,0.00,,---,0.00,VWS V14.01,2013-06-21 20:38:00,
2013-06-21 16:40:00,81.0,62.8,30.22,ENE,72,3.0,7.0,54,0.00,,---,0.00,VWS V14.01,2013-06-21 20:40:00,
2013-06-21 16:44:00,81.2,62.5,30.22,East,87,2.0,6.0,53,0.00,,---,0.00,VWS V14.01,2013-06-21 20:44:00,
2013-06-21 16:49:00,81.4,61.5,30.22,East,86,2.0,7.0,51,0.00,,---,0.00,VWS V14.01,2013-06-21 20:49:00,
2013-06-21 16:50:00,81.4,61.5,30.22,East,94,3.0,7.0,51,0.00,,---,0.00,VWS V14.01,2013-06-21 20:50:00,
2013-06-21 16:54:00,81.5,62.2,30.22,SSE,162,6.0,8.0,52,0.00,,---,0.00,VWS V14.01,2013-06-21 20:54:00,
2013-06-21 16:59:00,81.4,62.1,30.21,SSW,203,1.0,8.0,52,0.00,,---,0.00,VWS V14.01,2013-06-21 20:59:00,
2013-06-21 17:00:00,81.4,62.1,30.21,SW,214,1.0,8.0,52,0.00,,---,0.00,VWS V14.01,2013-06-21 21:00:00,
2013-06-21 17:04:00,81.8,61.9,30.21,SW,222,0.0,3.0,51,0.00,,---,0.00,VWS V14.01,2013-06-21 21:04:00,
2013-06-21 17:09:00,81.9,62.0,30.21,SSW,209,2.0,6.0,51,0.00,,---,0.00,VWS V14.01,2013-06-21 21:09:00,
2013-06-21 17:10:00,81.9,62.0,30.21,SSW,207,0.0,6.0,51,0.00,,---,0.00,VWS V14.01,2013-06-21 21:10:00,
2013-06-21 17:14:00,82.0,61.0,30.21,SSE,151,5.0,9.0,49,0.00,,---,0.00,VWS V14.01,2013-06-21 21:14:00,
2013-06-21 17:19:00,81.7,60.1,30.20,SE,137,3.0,9.0,48,0.00,,---,0.00,VWS V14.01,2013-06-21 21:19:00,
2013-06-21 17:20:00,81.8,60.8,30.20,SSE,153,4.0,9.0,49,0.00,,---,0.00,VWS V14.01,2013-06-21 21:20:00,
2013-06-21 17:24:00,81.8,59.6,30.20,ESE,103,5.0,6.0,47,0.00,,---,0.00,VWS V14.01,2013-06-21 21:24:00,
2013-06-21 17:29:00,81.7,61.3,30.20,ESE,102,6.0,6.0,50,0.00,,---,0.00,VWS V14.01,2013-06-21 21:29:00,
2013-06-21 17:30:00,81.7,60.1,30.20,East,93,3.0,6.0,48,0.00,,---,0.00,VWS V14.01,2013-06-21 21:30:00,
2013-06-21 17:34:00,81.5,60.5,30.20,ENE,77,3.0,4.0,49,0.00,,---,0.00,VWS V14.01,2013-06-21 21:34:00,
2013-06-21 17:39:00,81.4,59.8,30.20,East,101,6.0,7.0,48,0.00,,---,0.00,VWS V14.01,2013-06-21 21:39:00,
2013-06-21 17:40:00,81.3,59.8,30.20,East,84,4.0,7.0,48,0.00,,---,0.00,VWS V14.01,2013-06-21 21:40:00,
2013-06-21 17:44:00,81.2,59.7,30.20,ESE,118,6.0,6.0,48,0.00,,---,0.00,VWS V14.01,2013-06-21 21:44:00,
2013-06-21 17:49:00,81.1,59.6,30.20,East,95,3.0,7.0,48,0.00,,---,0.00,VWS V14.01,2013-06-21 21:49:00,
2013-06-21 17:50:00,81.1,59.6,30.20,ESE,113,3.0,7.0,48,0.00,,---,0.00,VWS V14.01,2013-06-21 21:50:00,
2013-06-21 17:54:00,81.2,60.8,30.20,ESE,113,6.0,8.0,50,0.00,,---,0.00,VWS V14.01,2013-06-21 21:54:00,
2013-06-21 17:59:00,81.2,61.4,30.20,ENE,66,5.0,8.0,51,0.00,,---,0.00,VWS V14.01,2013-06-21 21:59:00,
2013-06-21 18:00:00,81.2,61.4,30.20,NE,54,3.0,8.0,51,0.00,,---,0.00,VWS V14.01,2013-06-21 22:00:00,
2013-06-21 18:04:00,81.0,61.2,30.20,East,82,4.0,9.0,51,0.00,,---,0.00,VWS V14.01,2013-06-21 22:04:00,
2013-06-21 18:09:00,80.8,61.5,30.20,ENE,72,4.0,9.0,52,0.00,,---,0.00,VWS V14.01,2013-06-21 22:09:00,
2013-06-21 18:10:00,80.8,61.5,30.20,East,83,4.0,9.0,52,0.00,,---,0.00,VWS V14.01,2013-06-21 22:10:00,
2013-06-21 18:14:00,80.7,61.5,30.20,East,79,2.0,8.0,52,0.00,,---,0.00,VWS V14.01,2013-06-21 22:14:00,
2013-06-21 18:19:00,80.6,60.8,30.20,SE,139,2.0,8.0,51,0.00,,---,0.00,VWS V14.01,2013-06-21 22:19:00,
2013-06-21 18:20:00,80.7,60.3,30.20,SE,139,1.0,8.0,50,0.00,,---,0.00,VWS V14.01,2013-06-21 22:20:00,
2013-06-21 18:24:00,80.7,62.0,30.20,ENE,77,4.0,7.0,53,0.00,,---,0.00,VWS V14.01,2013-06-21 22:24:00,
2013-06-21 18:29:00,80.7,62.5,30.20,East,92,4.0,7.0,54,0.00,,---,0.00,VWS V14.01,2013-06-21 22:29:00,
2013-06-21 18:30:00,80.7,62.5,30.20,East,85,6.0,7.0,54,0.00,,---,0.00,VWS V14.01,2013-06-21 22:30:00,
2013-06-21 18:34:00,80.4,60.6,30.20,East,87,3.0,9.0,51,0.00,,---,0.00,VWS V14.01,2013-06-21 22:34:00,
2013-06-21 18:39:00,80.3,61.6,30.20,ESE,123,5.0,9.0,53,0.00,,---,0.00,VWS V14.01,2013-06-21 22:39:00,
2013-06-21 18:40:00,80.3,61.6,30.20,ESE,109,4.0,9.0,53,0.00,,---,0.00,VWS V14.01,2013-06-21 22:40:00,
2013-06-21 18:44:00,80.2,60.5,30.20,East,84,5.0,8.0,51,0.00,,---,0.00,VWS V14.01,2013-06-21 22:44:00,
2013-06-21 18:49:00,80.1,60.4,30.20,ESE,113,3.0,8.0,51,0.00,,---,0.00,VWS V14.01,2013-06-21 22:49:00,
2013-06-21 18:50:00,80.1,60.4,30.20,SE,128,2.0,8.0,51,0.00,,---,0.00,VWS V14.01,2013-06-21 22:50:00,
2013-06-21 18:54:00,80.1,59.8,30.20,ESE,110,1.0,7.0,50,0.00,,---,0.00,VWS V14.01,2013-06-21 22:54:00,
2013-06-21 18:59:00,80.1,58.7,30.20,ESE,117,3.0,7.0,48,0.00,,---,0.00,VWS V14.01,2013-06-21 22:59:00,
2013-06-21 19:00:00,80.1,58.7,30.20,ESE,120,4.0,7.0,48,0.00,,---,0.00,VWS V14.01,2013-06-21 23:00:00,
2013-06-21 19:04:00,80.0,60.3,30.20,East,81,2.0,4.0,51,0.00,,---,0.00,VWS V14.01,2013-06-21 23:04:00,
2013-06-21 19:09:00,79.9,59.6,30.20,East,91,0.0,4.0,50,0.00,,---,0.00,VWS V14.01,2013-06-21 23:09:00,
2013-06-21 19:10:00,79.9,59.6,30.20,East,91,0.0,4.0,50,0.00,,---,0.00,VWS V14.01,2013-06-21 23:10:00,
2013-06-21 19:14:00,79.8,60.1,30.20,ESE,113,1.0,3.0,51,0.00,,---,0.00,VWS V14.01,2013-06-21 23:14:00,
2013-06-21 19:19:00,79.8,59.5,30.21,ESE,103,0.0,3.0,50,0.00,,---,0.00,VWS V14.01,2013-06-21 23:19:00,
2013-06-21 19:20:00,79.8,59.5,30.21,ESE,103,0.0,3.0,50,0.00,,---,0.00,VWS V14.01,2013-06-21 23:20:00,
2013-06-21 19:24:00,79.7,59.4,30.21,East,93,2.0,5.0,50,0.00,,---,0.00,VWS V14.01,2013-06-21 23:24:00,
2013-06-21 19:29:00,79.5,60.9,30.20,ESE,108,0.0,5.0,53,0.00,,---,0.00,VWS V14.01,2013-06-21 23:29:00,
2013-06-21 19:30:00,79.5,60.9,30.20,ESE,108,0.0,5.0,53,0.00,,---,0.00,VWS V14.01,2013-06-21 23:30:00,
2013-06-21 19:34:00,79.6,62.5,30.20,ESE,108,0.0,2.0,56,0.00,,---,0.00,VWS V14.01,2013-06-21 23:34:00,
2013-06-21 19:39:00,79.3,60.7,30.20,East,82,1.0,4.0,53,0.00,,---,0.00,VWS V14.01,2013-06-21 23:39:00,
2013-06-21 19:40:00,79.3,60.7,30.20,East,82,1.0,4.0,53,0.00,,---,0.00,VWS V14.01,2013-06-21 23:40:00,
2013-06-21 19:44:00,78.8,60.8,30.21,ENE,77,1.0,3.0,54,0.00,,---,0.00,VWS V14.01,2013-06-21 23:44:00,
2013-06-21 19:49:00,78.3,61.3,30.21,ENE,77,1.0,3.0,56,0.00,,---,0.00,VWS V14.01,2013-06-21 23:49:00,
2013-06-21 19:50:00,78.3,61.3,30.21,ENE,77,1.0,3.0,56,0.00,,---,0.00,VWS V14.01,2013-06-21 23:50:00,
2013-06-21 19:54:00,77.8,60.9,30.21,ESE,108,1.0,1.0,56,0.00,,---,0.00,VWS V14.01,2013-06-21 23:54:00,
2013-06-21 19:59:00,77.4,61.0,30.21,East,96,0.0,1.0,57,0.00,,---,0.00,VWS V14.01,2013-06-21 23:59:00,
2013-06-21 20:00:00,77.4,61.0,30.21,East,96,0.0,1.0,57,0.00,,---,0.00,VWS V14.01,2013-06-22 00:00:00,
2013-06-21 20:04:00,76.8,60.9,30.21,East,83,1.0,1.0,58,0.00,,---,0.00,VWS V14.01,2013-06-22 00:04:00,
2013-06-21 20:09:00,75.9,61.0,30.21,East,82,0.0,1.0,60,0.00,,---,0.00,VWS V14.01,2013-06-22 00:09:00,
2013-06-21 20:10:00,75.9,61.0,30.21,East,82,0.0,1.0,60,0.00,,---,0.00,VWS V14.01,2013-06-22 00:10:00,
2013-06-21 20:14:00,74.6,61.6,30.21,East,88,0.0,1.0,64,0.00,,---,0.00,VWS V14.01,2013-06-22 00:14:00,
2013-06-21 20:19:00,73.6,60.2,30.21,East,81,0.0,2.0,63,0.00,,---,0.00,VWS V14.01,2013-06-22 00:19:00,
2013-06-21 20:20:00,73.6,60.7,30.21,East,81,0.0,2.0,64,0.00,,---,0.00,VWS V14.01,2013-06-22 00:20:00,
2013-06-21 20:24:00,73.2,62.4,30.20,East,81,0.0,1.0,69,0.00,,---,0.00,VWS V14.01,2013-06-22 00:24:00,
2013-06-21 20:29:00,72.5,62.2,30.20,East,81,0.0,1.0,70,0.00,,---,0.00,VWS V14.01,2013-06-22 00:29:00,
2013-06-21 20:30:00,72.5,62.2,30.20,East,81,0.0,1.0,70,0.00,,---,0.00,VWS V14.01,2013-06-22 00:30:00,
2013-06-21 20:34:00,71.6,61.3,30.20,East,81,0.0,0.0,70,0.00,,---,0.00,VWS V14.01,2013-06-22 00:34:00,
2013-06-21 20:39:00,70.7,60.8,30.20,East,81,0.0,1.0,71,0.00,,---,0.00,VWS V14.01,2013-06-22 00:39:00,
2013-06-21 20:40:00,70.7,60.8,30.20,East,81,0.0,1.0,71,0.00,,---,0.00,VWS V14.01,2013-06-22 00:40:00,
2013-06-21 20:44:00,70.2,61.5,30.20,East,81,0.0,0.0,74,0.00,,---,0.00,VWS V14.01,2013-06-22 00:44:00,
2013-06-21 20:49:00,69.5,61.6,30.20,East,81,0.0,0.0,76,0.00,,---,0.00,VWS V14.01,2013-06-22 00:49:00,
2013-06-21 20:50:00,69.5,61.6,30.20,East,81,0.0,0.0,76,0.00,,---,0.00,VWS V14.01,2013-06-22 00:50:00,
2013-06-21 20:54:00,68.6,61.1,30.20,East,81,0.0,0.0,77,0.00,,---,0.00,VWS V14.01,2013-06-22 00:54:00,
2013-06-21 20:59:00,67.9,61.2,30.20,East,81,0.0,0.0,79,0.00,,---,0.00,VWS V14.01,2013-06-22 00:59:00,
2013-06-21 21:00:00,67.9,61.2,30.20,East,81,0.0,0.0,79,0.00,,---,0.00,VWS V14.01,2013-06-22 01:00:00,
2013-06-21 21:04:00,67.5,60.4,30.20,East,81,0.0,0.0,78,0.00,,---,0.00,VWS V14.01,2013-06-22 01:04:00,
2013-06-21 21:09:00,67.0,60.3,30.20,East,81,0.0,0.0,79,0.00,,---,0.00,VWS V14.01,2013-06-22 01:09:00,
2013-06-21 21:10:00,67.0,60.3,30.20,East,81,0.0,0.0,79,0.00,,---,0.00,VWS V14.01,2013-06-22 01:10:00,
2013-06-21 21:14:00,66.9,60.2,30.20,East,81,0.0,1.0,79,0.00,,---,0.00,VWS V14.01,2013-06-22 01:14:00,
2013-06-21 21:19:00,66.7,60.3,30.21,East,81,0.0,1.0,80,0.00,,---,0.00,VWS V14.01,2013-06-22 01:19:00,
2013-06-21 21:20:00,66.7,60.3,30.21,East,81,0.0,1.0,80,0.00,,---,0.00,VWS V14.01,2013-06-22 01:20:00,
2013-06-21 21:24:00,66.1,59.8,30.21,East,81,0.0,0.0,80,0.00,,---,0.00,VWS V14.01,2013-06-22 01:24:00,
2013-06-21 21:29:00,65.6,59.3,30.21,East,81,0.0,0.0,80,0.00,,---,0.00,VWS V14.01,2013-06-22 01:29:00,
2013-06-21 21:30:00,65.6,59.3,30.21,East,81,0.0,0.0,80,0.00,,---,0.00,VWS V14.01,2013-06-22 01:30:00,
2013-06-21 21:34:00,65.2,59.6,30.21,East,81,0.0,0.0,82,0.00,,---,0.00,VWS V14.01,2013-06-22 01:34:00,
2013-06-21 21:39:00,64.7,59.4,30.21,East,80,0.0,0.0,83,0.00,,---,0.00,VWS V14.01,2013-06-22 01:39:00,
2013-06-21 21:40:00,64.7,59.4,30.21,East,80,0.0,0.0,83,0.00,,---,0.00,VWS V14.01,2013-06-22 01:40:00,
2013-06-21 21:44:00,64.3,59.4,30.21,East,81,0.0,0.0,84,0.00,,---,0.00,VWS V14.01,2013-06-22 01:44:00,
2013-06-21 21:49:00,63.9,59.3,30.22,East,81,0.0,0.0,85,0.00,,---,0.00,VWS V14.01,2013-06-22 01:49:00,
2013-06-21 21:50:00,63.9,59.3,30.22,East,81,0.0,0.0,85,0.00,,---,0.00,VWS V14.01,2013-06-22 01:50:00,
2013-06-21 21:54:00,63.4,58.8,30.22,East,80,0.0,0.0,85,0.00,,---,0.00,VWS V14.01,2013-06-22 01:54:00,
2013-06-21 21:59:00,62.9,58.7,30.22,East,81,0.0,0.0,86,0.00,,---,0.00,VWS V14.01,2013-06-22 01:59:00,
2013-06-21 22:00:00,62.9,58.7,30.22,East,81,0.0,0.0,86,0.00,,---,0.00,VWS V14.01,2013-06-22 02:00:00,
2013-06-21 22:04:00,62.5,58.3,30.22,East,80,0.0,0.0,86,0.00,,---,0.00,VWS V14.01,2013-06-22 02:04:00,
2013-06-21 22:09:00,62.5,56.9,30.22,East,81,0.0,0.0,82,0.00,,---,0.00,VWS V14.01,2013-06-22 02:09:00,
2013-06-21 22:10:00,62.5,56.9,30.22,East,80,0.0,0.0,82,0.00,,---,0.00,VWS V14.01,2013-06-22 02:10:00,
2013-06-21 22:14:00,63.1,57.9,30.22,East,80,0.0,0.0,83,0.00,,---,0.00,VWS V14.01,2013-06-22 02:14:00,
2013-06-21 22:19:00,63.0,57.8,30.22,East,81,0.0,0.0,83,0.00,,---,0.00,VWS V14.01,2013-06-22 02:19:00,
2013-06-21 22:20:00,63.0,57.8,30.22,East,81,0.0,0.0,83,0.00,,---,0.00,VWS V14.01,2013-06-22 02:20:00,
2013-06-21 22:24:00,62.8,57.9,30.22,East,81,0.0,0.0,84,0.00,,---,0.00,VWS V14.01,2013-06-22 02:24:00,
2013-06-21 22:29:00,62.4,57.8,30.22,East,80,0.0,0.0,85,0.00,,---,0.00,VWS V14.01,2013-06-22 02:29:00,
2013-06-21 22:30:00,62.4,57.8,30.22,East,80,0.0,0.0,85,0.00,,---,0.00,VWS V14.01,2013-06-22 02:30:00,
2013-06-21 22:34:00,62.0,57.8,30.22,East,81,0.0,0.0,86,0.00,,---,0.00,VWS V14.01,2013-06-22 02:34:00,
2013-06-21 22:39:00,61.9,56.7,30.23,East,80,0.0,0.0,83,0.00,,---,0.00,VWS V14.01,2013-06-22 02:39:00,
2013-06-21 22:40:00,61.9,56.7,30.23,East,80,0.0,0.0,83,0.00,,---,0.00,VWS V14.01,2013-06-22 02:40:00,
2013-06-21 22:44:00,62.3,56.7,30.22,East,80,1.0,1.0,82,0.00,,---,0.00,VWS V14.01,2013-06-22 02:44:00,
2013-06-21 22:49:00,62.4,56.5,30.22,East,79,1.0,1.0,81,0.00,,---,0.00,VWS V14.01,2013-06-22 02:49:00,
2013-06-21 22:50:00,62.4,56.5,30.22,East,79,1.0,1.0,81,0.00,,---,0.00,VWS V14.01,2013-06-22 02:50:00,
2013-06-21 22:54:00,62.6,56.3,30.22,East,79,0.0,1.0,80,0.00,,---,0.00,VWS V14.01,2013-06-22 02:54:00,
2013-06-21 22:59:00,62.7,56.8,30.22,East,79,0.0,0.0,81,0.00,,---,0.00,VWS V14.01,2013-06-22 02:59:00,
2013-06-21 23:00:00,62.7,56.8,30.22,East,79,0.0,1.0,81,0.00,,---,0.00,VWS V14.01,2013-06-22 03:00:00,
2013-06-21 23:04:00,62.4,56.8,30.22,East,79,0.0,0.0,82,0.00,,---,0.00,VWS V14.01,2013-06-22 03:04:00,
2013-06-21 23:09:00,62.1,57.2,30.22,East,79,0.0,0.0,84,0.00,,---,0.00,VWS V14.01,2013-06-22 03:09:00,
2013-06-21 23:10:00,62.1,57.2,30.22,East,79,0.0,0.0,84,0.00,,---,0.00,VWS V14.01,2013-06-22 03:10:00,
2013-06-21 23:14:00,61.8,56.9,30.22,NNE,12,0.0,1.0,84,0.00,,---,0.00,VWS V14.01,2013-06-22 03:14:00,
2013-06-21 23:19:00,61.6,57.4,30.23,North,11,0.0,0.0,86,0.00,,---,0.00,VWS V14.01,2013-06-22 03:19:00,
2013-06-21 23:20:00,61.6,57.0,30.23,North,11,0.0,1.0,85,0.00,,---,0.00,VWS V14.01,2013-06-22 03:20:00,
2013-06-21 23:24:00,61.3,56.8,30.23,South,174,1.0,6.0,85,0.00,,---,0.00,VWS V14.01,2013-06-22 03:24:00,
2013-06-21 23:29:00,61.1,57.2,30.23,West,262,1.0,1.0,87,0.00,,---,0.00,VWS V14.01,2013-06-22 03:29:00,
2013-06-21 23:30:00,61.1,57.2,30.23,WSW,243,1.0,6.0,87,0.00,,---,0.00,VWS V14.01,2013-06-22 03:30:00,
2013-06-21 23:34:00,61.1,57.2,30.23,SW,233,0.0,1.0,87,0.00,,---,0.00,VWS V14.01,2013-06-22 03:34:00,
2013-06-21 23:39:00,60.8,57.2,30.23,SW,232,0.0,0.0,88,0.00,,---,0.00,VWS V14.01,2013-06-22 03:39:00,
2013-06-21 23:40:00,60.8,57.2,30.23,SW,232,0.0,1.0,88,0.00,,---,0.00,VWS V14.01,2013-06-22 03:40:00,
2013-06-21 23:44:00,60.7,57.4,30.23,NNE,21,0.0,1.0,89,0.00,,---,0.00,VWS V14.01,2013-06-22 03:44:00,
2013-06-21 23:49:00,61.1,57.5,30.23,ENE,70,0.0,0.0,88,0.00,,---,0.00,VWS V14.01,2013-06-22 03:49:00,
2013-06-21 23:50:00,61.0,57.4,30.23,ENE,70,0.0,1.0,88,0.00,,---,0.00,VWS V14.01,2013-06-22 03:50:00,
2013-06-21 23:54:00,61.1,57.2,30.23,ENE,68,0.0,1.0,87,0.00,,---,0.00,VWS V14.01,2013-06-22 03:54:00,
2013-06-21 23:59:00,60.8,57.2,30.23,North,349,0.0,0.0,88,0.00,,---,0.00,VWS V14.01,2013-06-22 03:59:00,